Preview of NWS' New Version of Forecast
This preview is not operational and should not be used for support decisions.

Regional Weather Roundup (RWR)

Issued by National Weather Service (NWS)

                            
000
ASUS43 KTOP 191008
RWRKS 

WEATHER ROUNDUP FOR KANSAS
NATIONAL WEATHER SERVICE GOODLAND KS
500 AM CDT SUN MAY 19 2019

NOTE:  "FAIR" INDICATES FEW OR NO CLOUDS BELOW 12,000 FEET WITH NO
SIGNIFICANT WEATHER AND/OR OBSTRUCTIONS TO VISIBILITY.

KSZ001>006-013>018-027>032-041>047-191100-
NORTHWEST KANSAS
  
CITY           SKY/WX    TMP DP  RH WIND       PRES   REMARKS
GOODLAND       CLEAR     38  31  76 NW20      29.92R WCI  28          
HAYS           PTCLDY    49  43  80 NW17      29.84R                  
HILL CITY      PTCLDY    45  39  79 NW17G25   29.87R                  
RUSSELL        PTCLDY    51  43  74 NW20G29   29.80R                  
$$

KSZ061>065-074>080-084>089-191100-
SOUTHWEST KANSAS
  
CITY           SKY/WX    TMP DP  RH WIND       PRES   REMARKS
DODGE CITY     CLEAR     49  45  86 NW13      29.87R                  
ELKHART        CLEAR     46  42  86 N10       29.91S                  
GARDEN CITY    CLEAR     46  43  89 N12       29.89R                  
GREAT BEND     CLEAR     52  46  80 NW16G25   29.83R                  
LIBERAL        CLEAR     46  42  86 N12       29.90S                  
PRATT          MOCLDY    53  52  95 NW14      29.83R                  
$$

KSZ066>073-081>083-090>101-191100-
SOUTHEAST KANSAS
  
CITY           SKY/WX    TMP DP  RH WIND       PRES   REMARKS
CHANUTE        CLEAR     56  52  86 SW9       29.69R                  
COFFEYVILLE    CLEAR     53  51  93 S5        29.71R                  
HUTCHINSON     MOCLDY    54  52  93 NW9       29.76R                  
MEDICINE LODGE   N/A     54  50  86 NW12      29.81R                  
NEWTON         CLOUDY    54  52  93 NW16      29.74R                  
PARSONS        CLEAR     54  53  97 S3        29.72R                  
WICHITA INTL   CLOUDY    57  51  80 NW10      29.75R                  
WICHITA JABRA  CLOUDY    55  50  83 NW7       29.73R                  
WICHITA MCCONL CLOUDY    57  50  78 NW12      29.73R                  
WINFIELD       MOCLDY    53  52  96 SW6       29.76R                  
$$

KSZ007>012-019>026-033>040-048>060-102>105-191100-
NORTHEAST KANSAS
  
CITY           SKY/WX    TMP DP  RH WIND       PRES   REMARKS
CONCORDIA      CLOUDY    55  49  80 NW14      29.74R                  
EMPORIA        LGT RAIN  56  55  97 W17G29    29.65R                  
LAWRENCE       CLOUDY    56  53  90 W6        29.60R                  
MANHATTAN      RAIN      57  53  86 NW9G18    29.69R                  
MARYSVILLE     LGT RAIN  54  50  87 NW18      29.69R                  
OLATHE IND     CLOUDY    56  52  86 SW7       29.61R                  
OLATHE EXE     CLOUDY    55  53  93 SW6       29.60R                  
SALINA         CLOUDY    56  52  86 NW10      29.75R                  
TOPEKA BILLARD CLOUDY    57  55  93 W3        29.61R                  
TOPEKA FORBES  CLOUDY    57  54  89 W9        29.61R                  
$$